Location: Campillo
(40.8621°N, 4.2488°W)
Time: 18:44:29
(UTC+00:00)

Cosmos 158 Rocket - Pass Details

Date: 26 September 2021
Orbit: 699 x 792 km, 74.0° (Epoch: 27 October)

Event Time Altitude Azimuth Distance (km) Brightness Sun altitude
Rises 18:53:06 0° 352° (N) 3,159 7.4 -9.5°
Reaches altitude 10° 18:55:56 10° 7° (N) 2,217 6.4 -10.0°
Maximum altitude 18:59:52 23° 59° (ENE) 1,496 5.1 -10.8°
Enters shadow 19:02:31 15° 100° (E) 1,838 5.3 -11.3°
